SAS105 ESSA-ESMS

Flight info

Callsign SAS105
Flight time 0h 48m
Altitude 30000
Route PETEV N872 ELPAX DCT RASMU
Aircraft CRJ9/M-SDFGIRWY/S

Departure

Time 2026-05-08 19:25
Airport Stockholm-Arlanda Airport (ESSA)

Arrival

Time 2026-05-08 20:13
Airport Malmö Sturup Airport (ESMS)
Time Latitude Longitude Altitude Speed Heading
2026-05-08 18:44 59.65240 17.92983 110 ft 0 kts 71°
2026-05-08 19:18 59.65232 17.92943 109 ft 4 kts 70°
2026-05-08 19:18 59.65220 17.92899 109 ft 4 kts 46°
2026-05-08 19:18 59.65199 17.92875 108 ft 4 kts
2026-05-08 19:19 59.65183 17.92878 108 ft 1 kts 343°
2026-05-08 19:21 59.65194 17.92871 108 ft 4 kts 343°
2026-05-08 19:21 59.65233 17.92840 108 ft 7 kts 332°
2026-05-08 19:21 59.65298 17.92769 110 ft 12 kts 331°
2026-05-08 19:22 59.65372 17.92692 110 ft 12 kts 333°
2026-05-08 19:22 59.65454 17.92604 107 ft 15 kts 331°
2026-05-08 19:22 59.65551 17.92518 103 ft 15 kts 346°
2026-05-08 19:22 59.65663 17.92462 101 ft 17 kts 346°
2026-05-08 19:23 59.65775 17.92427 103 ft 16 kts
2026-05-08 19:23 59.65883 17.92442 104 ft 15 kts 330°
2026-05-08 19:23 59.65918 17.92285 110 ft 12 kts 280°
2026-05-08 19:23 59.65931 17.92152 113 ft 9 kts 277°
2026-05-08 19:24 59.65926 17.92127 113 ft 0 kts 196°
2026-05-08 19:24 59.65844 17.92097 112 ft 37 kts 191°
2026-05-08 19:25 59.65316 17.91898 103 ft 116 kts 190°
2026-05-08 19:25 59.64336 17.91565 178 ft 161 kts 190°
2026-05-08 19:25 59.63232 17.91149 936 ft 158 kts 190°
2026-05-08 19:25 59.62178 17.90630 1734 ft 163 kts 208°
2026-05-08 19:26 59.61442 17.88865 2336 ft 170 kts 237°
2026-05-08 19:26 59.60812 17.86736 2698 ft 189 kts 235°
2026-05-08 19:26 59.60026 17.84478 3089 ft 209 kts 229°
2026-05-08 19:26 59.59057 17.82168 3551 ft 227 kts 229°
2026-05-08 19:27 59.58140 17.79565 4253 ft 234 kts 236°
2026-05-08 19:27 59.57302 17.76617 4741 ft 257 kts 241°
2026-05-08 19:27 59.56751 17.74493 5118 ft 267 kts 240°
2026-05-08 19:27 59.55258 17.70561 6264 ft 271 kts 226°
2026-05-08 19:28 59.54385 17.68768 6793 ft 275 kts 224°
2026-05-08 19:28 59.53019 17.66095 7603 ft 279 kts 224°
2026-05-08 19:28 59.51176 17.62509 8754 ft 282 kts 224°
2026-05-08 19:28 59.50224 17.60653 9335 ft 284 kts 224°
2026-05-08 19:29 59.48845 17.57918 10204 ft 286 kts 225°
2026-05-08 19:29 59.47445 17.55087 10975 ft 289 kts 225°
2026-05-08 19:29 59.46039 17.52237 11741 ft 292 kts 225°
2026-05-08 19:29 59.44623 17.49357 12525 ft 293 kts 226°
2026-05-08 19:30 59.43190 17.46448 13285 ft 296 kts 225°
2026-05-08 19:30 59.41745 17.43518 14066 ft 300 kts 225°
2026-05-08 19:30 59.40302 17.40600 14711 ft 303 kts 225°
2026-05-08 19:30 59.38834 17.37633 15396 ft 305 kts 225°
2026-05-08 19:31 59.37346 17.34631 16048 ft 309 kts 225°
2026-05-08 19:31 59.35847 17.31607 16745 ft 311 kts 225°
2026-05-08 19:31 59.34279 17.28451 16834 ft 336 kts 225°
2026-05-08 19:31 59.32587 17.25054 16928 ft 360 kts 225°
2026-05-08 19:32 59.30818 17.21501 17670 ft 365 kts 225°
2026-05-08 19:32 59.29036 17.17925 18482 ft 369 kts 225°
2026-05-08 19:32 59.27232 17.14314 19214 ft 373 kts 225°
2026-05-08 19:32 59.25422 17.10695 19907 ft 377 kts 225°
2026-05-08 19:33 59.23579 17.07017 20592 ft 380 kts 225°
2026-05-08 19:33 59.21717 17.03310 21264 ft 384 kts 224°
2026-05-08 19:33 59.19804 16.99628 21930 ft 387 kts 221°
2026-05-08 19:33 59.17767 16.96149 22579 ft 391 kts 218°
2026-05-08 19:34 59.15664 16.92757 23218 ft 394 kts 218°
2026-05-08 19:34 59.13526 16.89307 23856 ft 398 kts 218°
2026-05-08 19:34 59.11387 16.85855 24387 ft 401 kts 218°
2026-05-08 19:34 59.09255 16.82425 24892 ft 405 kts 218°
2026-05-08 19:35 59.07046 16.79140 25347 ft 407 kts 214°
2026-05-08 19:35 59.04701 16.76011 25864 ft 409 kts 211°
2026-05-08 19:35 59.02278 16.73082 26352 ft 411 kts 210°
2026-05-08 19:35 58.99800 16.70278 26831 ft 413 kts 208°
2026-05-08 19:36 58.97283 16.67521 27299 ft 416 kts 208°
2026-05-08 19:36 58.94750 16.64743 27754 ft 418 kts 208°
2026-05-08 19:36 58.92230 16.61898 28232 ft 419 kts 209°
2026-05-08 19:36 58.89752 16.59072 28782 ft 419 kts 209°
2026-05-08 19:37 58.87243 16.56209 29274 ft 419 kts 209°
2026-05-08 19:37 58.84687 16.53298 29646 ft 423 kts 209°
2026-05-08 19:37 58.82141 16.50402 29978 ft 426 kts 208°
2026-05-08 19:37 58.79617 16.47527 30357 ft 427 kts 208°
2026-05-08 19:38 58.77088 16.44659 30711 ft 428 kts 208°
2026-05-08 19:38 58.74515 16.41755 31016 ft 429 kts 208°
2026-05-08 19:38 58.71928 16.38838 31221 ft 433 kts 208°
2026-05-08 19:38 58.69308 16.35882 31390 ft 437 kts 208°
2026-05-08 19:39 58.66675 16.32918 31605 ft 439 kts 208°
2026-05-08 19:39 58.64026 16.29944 31858 ft 441 kts 208°
2026-05-08 19:39 58.61405 16.27005 32093 ft 442 kts 208°
2026-05-08 19:39 58.58738 16.24019 32260 ft 445 kts 208°
2026-05-08 19:40 58.56040 16.21004 32326 ft 449 kts 208°
2026-05-08 19:40 58.50634 16.14975 32366 ft 450 kts 208°
2026-05-08 19:41 58.45231 16.08975 32374 ft 452 kts 208°
2026-05-08 19:41 58.39761 16.02921 32367 ft 453 kts 208°
2026-05-08 19:42 58.34300 15.96899 32357 ft 453 kts 208°
2026-05-08 19:42 58.28854 15.90915 32360 ft 455 kts 209°
2026-05-08 19:43 58.23354 15.84894 32349 ft 456 kts 208°
2026-05-08 19:43 58.17833 15.78876 32351 ft 457 kts 208°
2026-05-08 19:44 58.12348 15.72912 32356 ft 457 kts 208°
2026-05-08 19:44 58.06829 15.66934 32358 ft 457 kts 209°
2026-05-08 19:45 58.01292 15.60953 32357 ft 458 kts 209°
2026-05-08 19:45 57.95776 15.55029 32354 ft 459 kts 209°
2026-05-08 19:46 57.90219 15.49073 32354 ft 459 kts 209°
2026-05-08 19:46 57.81905 15.40209 32352 ft 459 kts 209°
2026-05-08 19:47 57.76335 15.34296 32351 ft 459 kts 209°
2026-05-08 19:47 57.70761 15.28398 32348 ft 460 kts 209°
2026-05-08 19:48 57.65208 15.22536 32354 ft 463 kts 209°
2026-05-08 19:48 57.59573 15.16613 32350 ft 464 kts 209°
2026-05-08 19:49 57.53927 15.10710 32344 ft 465 kts 209°
2026-05-08 19:49 57.48308 15.04851 32345 ft 465 kts 209°
2026-05-08 19:50 57.42655 14.98977 32344 ft 465 kts 209°
2026-05-08 19:50 57.36994 14.93115 32343 ft 465 kts 209°
2026-05-08 19:51 57.31404 14.87347 32338 ft 465 kts 209°
2026-05-08 19:51 57.25728 14.81493 32332 ft 466 kts 210°
2026-05-08 19:52 57.20052 14.75680 32336 ft 466 kts 210°
2026-05-08 19:52 57.14410 14.69919 32325 ft 466 kts 210°
2026-05-08 19:53 57.08754 14.64168 31726 ft 454 kts 210°
2026-05-08 19:53 57.05966 14.61339 31115 ft 460 kts 210°
2026-05-08 19:53 57.03191 14.58532 30524 ft 448 kts 210°
2026-05-08 19:54 57.00516 14.55830 29864 ft 445 kts 210°
2026-05-08 19:54 56.97760 14.53048 29194 ft 445 kts 209°
2026-05-08 19:54 56.95079 14.50346 28548 ft 443 kts 209°
2026-05-08 19:54 56.92381 14.47628 27914 ft 441 kts 209°
2026-05-08 19:55 56.89690 14.44922 27312 ft 440 kts 209°
2026-05-08 19:55 56.87008 14.42226 26732 ft 439 kts 209°
2026-05-08 19:55 56.84325 14.39544 26161 ft 438 kts 209°
2026-05-08 19:55 56.81683 14.36903 25598 ft 437 kts 209°
2026-05-08 19:56 56.79025 14.34251 25049 ft 436 kts 209°
2026-05-08 19:56 56.76364 14.31594 24507 ft 435 kts 209°
2026-05-08 19:56 56.73710 14.28958 23968 ft 435 kts 209°
2026-05-08 19:56 56.71067 14.26337 23351 ft 424 kts 209°
2026-05-08 19:57 56.68526 14.23815 22744 ft 407 kts 209°
2026-05-08 19:57 56.66076 14.21393 22161 ft 394 kts 208°
2026-05-08 19:57 56.63700 14.19046 21608 ft 383 kts 208°
2026-05-08 19:57 56.61350 14.16728 21081 ft 385 kts 208°
2026-05-08 19:58 56.59015 14.14425 20574 ft 385 kts 208°
2026-05-08 19:58 56.56659 14.12107 20073 ft 385 kts 208°
2026-05-08 19:58 56.54301 14.09790 19587 ft 384 kts 208°
2026-05-08 19:58 56.51948 14.07481 19105 ft 383 kts 208°
2026-05-08 19:59 56.49617 14.05195 18622 ft 379 kts 208°
2026-05-08 19:59 56.47305 14.02934 18098 ft 376 kts 208°
2026-05-08 19:59 56.45043 14.00719 17578 ft 373 kts 208°
2026-05-08 19:59 56.42764 13.98489 17063 ft 371 kts 208°
2026-05-08 20:00 56.40499 13.96283 16564 ft 369 kts 207°
2026-05-08 20:00 56.38249 13.94091 16080 ft 366 kts 208°
2026-05-08 20:00 56.36004 13.91915 15601 ft 364 kts 208°
2026-05-08 20:00 56.33783 13.89759 15135 ft 362 kts 208°
2026-05-08 20:01 56.31572 13.87606 14679 ft 360 kts 208°
2026-05-08 20:01 56.29370 13.85479 14230 ft 358 kts 207°
2026-05-08 20:01 56.27203 13.83388 13742 ft 355 kts 208°
2026-05-08 20:01 56.25033 13.81290 13261 ft 353 kts 207°
2026-05-08 20:02 56.22875 13.79209 12779 ft 350 kts 207°
2026-05-08 20:02 56.20733 13.77148 12318 ft 347 kts 207°
2026-05-08 20:02 56.18610 13.75106 11868 ft 344 kts 207°
2026-05-08 20:02 56.16505 13.73087 11423 ft 340 kts 207°
2026-05-08 20:03 56.14424 13.71084 10986 ft 337 kts 207°
2026-05-08 20:03 56.12391 13.69136 10573 ft 333 kts 207°
2026-05-08 20:03 56.10350 13.67186 10160 ft 330 kts 207°
2026-05-08 20:03 56.08330 13.65257 9710 ft 326 kts 207°
2026-05-08 20:04 56.06321 13.63332 9269 ft 329 kts 207°
2026-05-08 20:04 56.04297 13.61400 8827 ft 329 kts 207°
2026-05-08 20:04 56.02289 13.59490 8423 ft 330 kts 206°
2026-05-08 20:04 56.00253 13.57556 8005 ft 329 kts 206°
2026-05-08 20:05 55.98230 13.55635 7594 ft 328 kts 206°
2026-05-08 20:05 55.96212 13.53718 7191 ft 327 kts 206°
2026-05-08 20:05 55.94202 13.51813 6790 ft 326 kts 206°
2026-05-08 20:05 55.92206 13.49923 6360 ft 324 kts 206°
2026-05-08 20:06 55.90245 13.48070 5914 ft 323 kts 206°
2026-05-08 20:06 55.88278 13.46209 5466 ft 311 kts 206°
2026-05-08 20:06 55.86401 13.44434 5043 ft 299 kts 205°
2026-05-08 20:06 55.84596 13.42727 4618 ft 289 kts 205°
2026-05-08 20:07 55.82847 13.41075 4230 ft 279 kts 205°
2026-05-08 20:07 55.81158 13.39473 3850 ft 271 kts 205°
2026-05-08 20:07 55.79520 13.37902 3498 ft 263 kts 205°
2026-05-08 20:07 55.77934 13.36375 3135 ft 256 kts 205°
2026-05-08 20:08 55.76413 13.34905 2831 ft 248 kts 204°
2026-05-08 20:08 55.74944 13.33475 2712 ft 232 kts 203°
2026-05-08 20:08 55.73500 13.32788 2658 ft 201 kts 171°
2026-05-08 20:08 55.72189 13.33072 2629 ft 178 kts 164°
2026-05-08 20:09 55.71021 13.33430 2579 ft 172 kts 163°
2026-05-08 20:09 55.69841 13.33832 2569 ft 169 kts 162°
2026-05-08 20:09 55.68703 13.34229 2604 ft 171 kts 162°
2026-05-08 20:09 55.67533 13.34626 2635 ft 163 kts 164°
2026-05-08 20:10 55.66436 13.34925 2603 ft 153 kts 165°
2026-05-08 20:10 55.65403 13.35167 2415 ft 154 kts 165°
2026-05-08 20:10 55.64323 13.35410 2219 ft 157 kts 165°
2026-05-08 20:10 55.63229 13.35646 2012 ft 159 kts 165°
2026-05-08 20:11 55.62164 13.35863 1782 ft 145 kts 166°
2026-05-08 20:11 55.61192 13.36057 1556 ft 141 kts 165°
2026-05-08 20:11 55.60227 13.36258 1338 ft 135 kts 164°
2026-05-08 20:11 55.59295 13.36453 1138 ft 140 kts 165°
2026-05-08 20:12 55.58346 13.36658 949 ft 139 kts 167°
2026-05-08 20:12 55.57361 13.36876 768 ft 144 kts 168°
2026-05-08 20:12 55.56382 13.37056 624 ft 139 kts 167°
2026-05-08 20:12 55.55740 13.37185 492 ft 139 kts 169°
2026-05-08 20:13 55.54787 13.37383 278 ft 139 kts 168°
2026-05-08 20:13 55.53933 13.37566 239 ft 85 kts 174°
2026-05-08 20:13 55.53544 13.37636 236 ft 47 kts 173°
2026-05-08 20:13 55.53246 13.37707 238 ft 39 kts 175°
2026-05-08 20:14 55.53073 13.37737 239 ft 17 kts 174°
2026-05-08 20:14 55.52986 13.37698 238 ft 12 kts 249°
2026-05-08 20:14 55.52972 13.37556 231 ft 7 kts 263°
2026-05-08 20:14 55.52983 13.37472 230 ft 7 kts 328°
2026-05-08 20:15 55.53033 13.37450 230 ft 8 kts 351°
2026-05-08 20:15 55.53094 13.37438 230 ft 11 kts 354°
2026-05-08 20:15 55.53173 13.37424 231 ft 12 kts 354°
2026-05-08 20:15 55.53262 13.37403 230 ft 15 kts 353°
2026-05-08 20:16 55.53364 13.37382 230 ft 15 kts 354°
2026-05-08 20:16 55.53470 13.37359 230 ft 16 kts 353°
2026-05-08 20:16 55.53580 13.37336 231 ft 16 kts 353°
2026-05-08 20:16 55.53694 13.37314 230 ft 17 kts 354°
2026-05-08 20:17 55.53810 13.37292 232 ft 17 kts 354°
2026-05-08 20:17 55.53915 13.37269 231 ft 9 kts 353°
2026-05-08 20:17 55.53961 13.37201 230 ft 10 kts 282°
2026-05-08 20:17 55.53958 13.37077 229 ft 10 kts 264°
2026-05-08 20:18 55.53949 13.36944 231 ft 11 kts 262°
2026-05-08 20:18 55.53943 13.36867 229 ft 7 kts 263°
2026-05-08 20:18 55.53953 13.36802 231 ft 5 kts 339°
2026-05-08 20:18 55.53991 13.36790 230 ft 0 kts 353°
2026-05-08 20:19 55.54003 13.36788 229 ft 3 kts 353°
2026-05-08 20:19 55.54009 13.36787 229 ft 0 kts 353°